Date,TemperatureHighF,TemperatureAvgF,TemperatureLowF,DewpointHighF,DewpointAvgF,DewpointLowF,HumidityHigh,HumidityAvg,HumidityLow,PressureMaxIn,PressureMinIn,WindSpeedMaxMPH,WindSpeedAvgMPH,GustSpeedMaxMPH,PrecipitationSumIn
2013-4-1,76.3,65.8,58.4,55.6,50.3,46.1,72,58,45,30.01,29.54,14,5,25,0.00
2013-4-2,75.4,63.2,57.4,57.7,54.0,48.4,88,73,39,30.00,29.67,9,4,21,0.00
2013-4-3,72.7,63.2,51.3,61.3,52.9,47.1,88,70,53,29.80,29.46,30,7,42,0.02
2013-4-4,66.7,53.6,43.5,50.0,46.3,41.9,97,79,52,30.08,29.80,9,3,17,0.01
2013-4-5,64.4,52.5,45.1,51.5,46.7,42.6,93,82,58,30.27,30.11,13,4,16,0.09
2013-4-6,57.8,48.9,42.0,49.1,43.9,39.8,96,84,63,30.35,30.27,20,5,21,0.01
2013-4-7,59.7,48.0,38.7,46.1,42.2,37.4,97,82,53,30.35,30.21,5,1,9,0.02
2013-4-8,71.4,53.7,38.8,49.6,44.5,37.6,98,75,40,30.20,30.01,14,3,18,0.00
2013-4-9,58.3,51.1,44.1,49.8,44.4,39.5,93,78,60,30.33,30.07,26,7,30,0.02
2013-4-10,63.0,49.5,33.7,49.3,42.0,32.0,97,77,51,30.32,30.11,8,2,16,0.00
2013-4-11,75.4,55.5,36.5,53.8,45.4,34.9,97,72,38,30.09,29.83,6,2,10,0.00
2013-4-12,65.2,58.2,49.5,51.9,48.0,43.6,87,70,51,30.29,29.89,10,4,14,0.00
2013-4-13,65.6,56.5,45.1,57.7,51.9,41.8,96,85,73,30.28,30.15,10,4,20,0.00
2013-4-14,65.8,55.3,46.2,56.8,51.1,44.8,97,86,70,30.16,29.93,15,2,20,0.00
2013-4-15,72.2,55.4,42.3,57.2,48.7,41.0,97,80,53,29.94,29.83,7,1,12,0.00
2013-4-16,67.1,54.3,45.8,58.0,51.0,44.4,97,89,70,29.86,29.78,20,6,23,0.10
2013-4-17,56.4,54.0,52.6,55.3,52.8,51.2,97,96,93,29.81,29.59,13,6,21,0.20
2013-4-18,61.5,54.6,47.6,53.3,50.4,45.3,97,86,70,29.91,29.68,17,6,20,0.02
2013-4-19,58.2,51.8,45.3,50.5,48.1,43.7,96,88,73,30.05,29.90,7,1,10,0.01
2013-4-20,52.7,51.3,50.0,50.4,48.8,47.2,96,91,86,30.07,30.00,18,9,33,0.68
2013-4-21,58.5,54.5,52.0,57.4,53.0,49.4,97,95,85,30.00,29.67,12,5,28,0.25
2013-4-22,60.6,53.1,45.6,56.1,51.5,44.8,98,94,82,29.67,29.53,6,2,9,0.02
2013-4-23,70.7,56.8,46.6,57.7,52.4,44.9,98,86,58,29.58,29.50,12,3,16,0.00
2013-4-24,70.7,54.8,41.4,56.2,49.9,40.3,98,85,56,29.53,29.48,13,3,21,0.00
2013-4-25,75.9,57.6,49.0,55.8,51.0,45.5,96,82,34,29.60,29.49,9,2,13,0.00
2013-4-26,62.2,54.0,45.1,54.2,48.1,43.8,98,82,56,29.69,29.44,7,3,13,0.01
2013-4-27,69.3,56.3,45.4,52.8,46.8,40.0,95,72,47,29.72,29.44,12,3,21,0.00
2013-4-28,77.3,59.6,43.3,55.1,47.0,42.0,98,68,34,29.82,29.68,13,3,25,0.00
2013-4-29,70.8,60.5,52.8,58.5,53.1,47.4,93,77,60,29.89,29.68,12,2,17,0.00
2013-4-30,56.5,50.4,42.8,52.4,48.7,41.2,97,94,85,30.24,29.91,18,3,23,0.32